Location: Fazenda Monte Alegre
(4.8500°S, 38.0333°W)
Time: 14:26:01
(UTC+00:00)

CSL-04 Debris - Pass Details

Date: 24 September 2020
Orbit: 827 x 848 km, 98.9° (Epoch: 19 October)

Event Time Altitude Azimuth Distance (km) Brightness Sun altitude
Rises 21:31:41 0° 154° (SSE) 3,384 7.1 -16.8°
Reaches altitude 10° 21:34:12 10° 146° (SSE) 2,444 6.3 -17.4°
Maximum altitude 21:39:14 40° 78° (ENE) 1,203 4.5 -18.7°
Drops below altitude 10° 21:44:13 10° 9° (N) 2,421 6.5 -19.9°
Sets 21:46:41 0° 2° (N) 3,349 7.3 -20.5°
